This is the latest recevied weather packets stored in our database for station/object BG5HLN-13. If no packets are shown the sender has not sent any weather packets the latest 1 day(s).
| Time | Temp. | Humidity | Pressure | Rain* | Wind** | Luminosity | Snow |
|---|---|---|---|---|---|---|---|
| 1778056985 | 25° C | 69% | 1009.7 hPa | 0 mm | - | - | - |
| 1778056982 | 25° C | 69% | 1009.8 hPa | 0 mm | - | - | - |
| 1778056385 | 25° C | 68% | 1009.7 hPa | 0 mm | - | - | - |
| 1778055785 | 25.56° C | 67% | 1009.9 hPa | 0 mm | - | - | - |
| 1778055184 | 25.56° C | 65% | 1010.1 hPa | 0 mm | - | - | - |
| 1778052785 | 26.67° C | 64% | 1010.2 hPa | 0 mm | - | - | - |
| 1778051585 | 27.22° C | 62% | 1010.4 hPa | 0 mm | - | - | - |
| 1778050985 | 27.22° C | 63% | 1010.5 hPa | 0 mm | - | - | - |
| 1778050384 | 27.22° C | 62% | 1010.6 hPa | 0 mm | - | - | - |
| 1778047982 | 27.78° C | 63% | 1011 hPa | 0 mm | - | - | - |
| 1778046181 | 28.33° C | 62% | 1011.4 hPa | 0 mm | - | - | - |
| 1778044984 | 28.33° C | 63% | 1011.8 hPa | 0 mm | - | - | - |
| 1778044384 | 28.33° C | 65% | 1011.9 hPa | 0 mm | - | - | - |
| 1778044381 | 28.33° C | 64% | 1011.9 hPa | 0 mm | - | - | - |
| 1778043784 | 28.33° C | 63% | 1011.9 hPa | 0 mm | - | - | - |
| 1778043184 | 28.33° C | 63% | 1012.1 hPa | 0 mm | - | - | - |
| 1778042581 | 27.78° C | 64% | 1012.2 hPa | 0 mm | - | - | - |
| 1778041984 | 27.78° C | 65% | 1012.3 hPa | 0 mm | - | - | - |
| 1778041383 | 27.78° C | 64% | 1012.4 hPa | 0 mm | - | - | - |
| 1778040781 | 27.78° C | 65% | 1012.5 hPa | 0 mm | - | - | - |
| 1778040184 | 27.22° C | 66% | 1012.5 hPa | 0 mm | - | - | - |
| 1778038984 | 26.67° C | 64% | 1012.9 hPa | 0 mm | - | - | - |
| 1778038384 | 26.67° C | 65% | 1012.9 hPa | 0 mm | - | - | - |
| 1778037783 | 26.11° C | 66% | 1013.1 hPa | 0 mm | - | - | - |
| 1778037180 | 25.56° C | 62% | 1013.1 hPa | 0 mm | - | - | - |
* Rain latest hour (hover to see other rain measurements)
** Current wind speed in m/s (hover to see current wind gust speed)